PGT825 OBBI-LTFJ

Flight info

Callsign PGT825
Flight time N/A
Altitude 34000
Route BHR M444 DAVUS L602 GADSI M860 NINVA UM860 NAREN UT368 EZS UL614 MARTI UG8 GOBIT UL614 UMRUN UG8 TOKER
Aircraft B738/M-SDE2E3FGHIRWXY/LB1

Departure

Time N/A
Airport Bahrain International Airport (OBBI)

Arrival

Time 2026-05-04 10:49
Airport Istanbul Sabiha Gökçen International Airport (LTFJ)
Time Latitude Longitude Altitude Speed Heading
2026-05-04 09:49 40.12114 32.44488 35823 ft 478 kts 282°
2026-05-04 09:49 40.12707 32.40217 35828 ft 478 kts 282°
2026-05-04 09:51 40.16797 32.10350 35835 ft 477 kts 281°
2026-05-04 09:51 40.17663 32.01770 35829 ft 479 kts 276°
2026-05-04 09:52 40.18216 31.93096 35840 ft 478 kts 277°
2026-05-04 09:52 40.18919 31.84452 35847 ft 475 kts 280°
2026-05-04 09:53 40.19923 31.76025 35851 ft 465 kts 281°
2026-05-04 09:53 40.20965 31.67693 35695 ft 465 kts 281°
2026-05-04 09:53 40.21475 31.63516 35338 ft 462 kts 281°
2026-05-04 09:54 40.21968 31.59385 34914 ft 457 kts 281°
2026-05-04 09:54 40.22444 31.55330 34518 ft 454 kts 281°
2026-05-04 09:54 40.22920 31.51248 34095 ft 450 kts 281°
2026-05-04 09:54 40.23389 31.47204 33617 ft 448 kts 281°
2026-05-04 09:55 40.23854 31.43182 33146 ft 445 kts 281°
2026-05-04 09:55 40.24314 31.39196 32702 ft 441 kts 282°
2026-05-04 09:55 40.24763 31.35291 32284 ft 438 kts 282°
2026-05-04 09:55 40.25213 31.31365 31862 ft 434 kts 283°
2026-05-04 09:56 40.25659 31.27468 31446 ft 431 kts 283°
2026-05-04 09:56 40.26101 31.23596 31040 ft 428 kts 283°
2026-05-04 09:56 40.26538 31.19762 30646 ft 425 kts 284°
2026-05-04 09:56 40.26972 31.15941 30255 ft 423 kts 284°
2026-05-04 09:57 40.27402 31.12141 29813 ft 420 kts 285°
2026-05-04 09:57 40.27828 31.08366 29361 ft 417 kts 285°
2026-05-04 09:57 40.28250 31.04624 28908 ft 414 kts 284°
2026-05-04 09:57 40.28665 31.00920 28527 ft 409 kts 284°
2026-05-04 09:58 40.29076 30.97243 28091 ft 406 kts 284°
2026-05-04 09:58 40.29482 30.93599 27713 ft 402 kts 284°
2026-05-04 09:58 40.29884 30.89995 27302 ft 398 kts 284°
2026-05-04 10:00 40.32613 30.65304 24497 ft 379 kts 284°
2026-05-04 10:00 40.32991 30.61890 24122 ft 377 kts 284°
2026-05-04 10:02 40.36587 30.39420 22024 ft 346 kts 312°
2026-05-04 10:04 40.35820 30.17156 19324 ft 359 kts 264°
2026-05-04 10:04 40.35406 30.13929 18953 ft 357 kts 264°
2026-05-04 10:04 40.34997 30.10764 18583 ft 355 kts 264°
2026-05-04 10:04 40.34578 30.07535 18203 ft 354 kts 264°
2026-05-04 10:05 40.34170 30.04417 17905 ft 349 kts 264°
2026-05-04 10:05 40.33759 30.01310 17726 ft 342 kts 263°
2026-05-04 10:05 40.33032 29.98346 17506 ft 342 kts 248°
2026-05-04 10:05 40.31966 29.95573 17252 ft 340 kts 246°
2026-05-04 10:06 40.30876 29.92829 16958 ft 339 kts 246°
2026-05-04 10:06 40.29798 29.90089 16668 ft 338 kts 247°
2026-05-04 10:06 40.28740 29.87349 16345 ft 336 kts 247°
2026-05-04 10:08 40.25758 29.70661 14478 ft 309 kts 280°
2026-05-04 10:08 40.25900 29.67856 14161 ft 308 kts 279°
2026-05-04 10:08 40.26028 29.65063 13859 ft 306 kts 279°
2026-05-04 10:08 40.26145 29.62284 13508 ft 305 kts 279°
2026-05-04 10:09 40.26258 29.59520 13172 ft 303 kts 279°
2026-05-04 10:09 40.26427 29.56798 12835 ft 296 kts 289°
2026-05-04 10:09 40.27246 29.54422 12468 ft 282 kts 312°
2026-05-04 10:09 40.28618 29.52663 12151 ft 273 kts 327°
2026-05-04 10:10 40.30142 29.51192 11797 ft 272 kts 328°
2026-05-04 10:10 40.31656 29.49763 11524 ft 271 kts 328°
2026-05-04 10:10 40.33180 29.48315 11286 ft 269 kts 327°
2026-05-04 10:10 40.34681 29.46875 11031 ft 267 kts 327°
2026-05-04 10:11 40.36180 29.45429 10698 ft 268 kts 327°
2026-05-04 10:11 40.37686 29.43972 10408 ft 268 kts 327°
2026-05-04 10:11 40.39156 29.42472 10137 ft 269 kts 318°
2026-05-04 10:11 40.40168 29.40397 9958 ft 270 kts 296°
2026-05-04 10:12 40.40556 29.38012 9643 ft 278 kts 276°
2026-05-04 10:12 40.40521 29.35479 9405 ft 277 kts 274°
2026-05-04 10:12 40.40466 29.32946 9109 ft 278 kts 274°
2026-05-04 10:12 40.40422 29.30399 8837 ft 278 kts 274°
2026-05-04 10:13 40.40386 29.27857 8582 ft 279 kts 274°
2026-05-04 10:13 40.40353 29.25311 8313 ft 279 kts 274°
2026-05-04 10:13 40.40336 29.22769 8079 ft 276 kts 278°
2026-05-04 10:13 40.40814 29.20427 8006 ft 259 kts 300°
2026-05-04 10:14 40.41677 29.18421 7993 ft 248 kts 306°
2026-05-04 10:14 40.42577 29.16524 7981 ft 244 kts 307°
2026-05-04 10:16 40.43916 29.01909 7951 ft 212 kts 271°
2026-05-04 10:16 40.43767 28.99983 7985 ft 212 kts 271°
2026-05-04 10:16 40.43830 28.98095 7987 ft 203 kts 290°
2026-05-04 10:16 40.44143 28.96306 7994 ft 205 kts 289°
2026-05-04 10:17 40.44439 28.94472 8007 ft 206 kts 288°
2026-05-04 10:17 40.44730 28.92613 7999 ft 208 kts 288°
2026-05-04 10:19 40.48175 28.80469 7997 ft 200 kts 304°
2026-05-04 10:19 40.48821 28.78895 7976 ft 191 kts 304°
2026-05-04 10:19 40.49438 28.77388 7979 ft 185 kts 305°
2026-05-04 10:19 40.50051 28.75899 8005 ft 187 kts 305°
2026-05-04 10:20 40.50818 28.74531 7992 ft 184 kts 322°
2026-05-04 10:20 40.51750 28.73370 7975 ft 184 kts 321°
2026-05-04 10:20 40.52653 28.72205 7972 ft 180 kts 321°
2026-05-04 10:20 40.53522 28.71076 7977 ft 176 kts 321°
2026-05-04 10:21 40.54397 28.69942 7991 ft 178 kts 321°
2026-05-04 10:21 40.55286 28.68788 7994 ft 181 kts 321°
2026-05-04 10:21 40.56184 28.67620 7989 ft 181 kts 321°
2026-05-04 10:21 40.57075 28.66460 7982 ft 180 kts 322°
2026-05-04 10:22 40.59145 28.64864 7986 ft 173 kts 337°
2026-05-04 10:22 40.60217 28.64127 7992 ft 174 kts 337°
2026-05-04 10:22 40.61292 28.63384 7996 ft 175 kts 337°
2026-05-04 10:23 40.62377 28.62634 7994 ft 177 kts 337°
2026-05-04 10:23 40.63472 28.61876 7991 ft 179 kts 337°
2026-05-04 10:25 40.68186 28.68137 7325 ft 177 kts 65°
2026-05-04 10:25 40.68601 28.69673 7225 ft 179 kts 65°
2026-05-04 10:25 40.69151 28.71733 7008 ft 179 kts 65°
2026-05-04 10:25 40.69427 28.72771 6897 ft 176 kts 65°
2026-05-04 10:26 40.69826 28.74271 6758 ft 171 kts 65°
2026-05-04 10:26 40.70215 28.75736 6630 ft 168 kts 65°
2026-05-04 10:26 40.70591 28.77155 6517 ft 162 kts 65°
2026-05-04 10:26 40.70952 28.78515 6426 ft 155 kts 65°
2026-05-04 10:27 40.71302 28.79831 6255 ft 149 kts 64°
2026-05-04 10:27 40.71690 28.81089 6151 ft 148 kts 61°
2026-05-04 10:27 40.72109 28.82328 6052 ft 146 kts 60°
2026-05-04 10:27 40.72526 28.83525 5971 ft 141 kts 59°
2026-05-04 10:28 40.72937 28.84686 5822 ft 138 kts 59°
2026-05-04 10:28 40.73349 28.85832 5726 ft 139 kts 59°
2026-05-04 10:28 40.73768 28.86992 5616 ft 140 kts 59°
2026-05-04 10:28 40.74185 28.88143 5511 ft 140 kts 59°
2026-05-04 10:29 40.74606 28.89302 5408 ft 140 kts 59°
2026-05-04 10:29 40.75031 28.90468 5261 ft 141 kts 59°
2026-05-04 10:29 40.75455 28.91632 5123 ft 140 kts 59°
2026-05-04 10:29 40.75873 28.92780 5001 ft 139 kts 59°
2026-05-04 10:30 40.76289 28.93919 4973 ft 139 kts 59°
2026-05-04 10:30 40.76702 28.95053 4965 ft 137 kts 59°
2026-05-04 10:30 40.77120 28.96196 4799 ft 139 kts 59°
2026-05-04 10:30 40.77534 28.97331 4573 ft 135 kts 59°
2026-05-04 10:31 40.77933 28.98425 4338 ft 131 kts 59°
2026-05-04 10:31 40.78333 28.99516 4121 ft 132 kts 59°
2026-05-04 10:32 40.80743 29.06108 3124 ft 132 kts 59°
2026-05-04 10:33 40.81146 29.07208 3109 ft 132 kts 59°
2026-05-04 10:33 40.81542 29.08293 3092 ft 130 kts 59°
2026-05-04 10:33 40.81936 29.09367 3094 ft 129 kts 58°
2026-05-04 10:33 40.82324 29.10426 3107 ft 130 kts 58°
2026-05-04 10:34 40.82719 29.11503 3110 ft 130 kts 59°
2026-05-04 10:34 40.83113 29.12580 3094 ft 130 kts 58°
2026-05-04 10:34 40.83503 29.13642 3105 ft 127 kts 59°
2026-05-04 10:34 40.83888 29.14691 3101 ft 128 kts 58°
2026-05-04 10:35 40.84282 29.15763 2927 ft 128 kts 58°
2026-05-04 10:35 40.84655 29.16784 2744 ft 120 kts 58°
2026-05-04 10:35 40.85012 29.17756 2566 ft 117 kts 57°
2026-05-04 10:35 40.85368 29.18723 2402 ft 117 kts 57°
2026-05-04 10:36 40.85722 29.19687 2204 ft 116 kts 57°
2026-05-04 10:36 40.86073 29.20642 2039 ft 116 kts 57°
2026-05-04 10:36 40.86430 29.21612 1861 ft 119 kts 58°
2026-05-04 10:36 40.86791 29.22595 1666 ft 118 kts 58°
2026-05-04 10:37 40.87150 29.23571 1489 ft 119 kts 58°
2026-05-04 10:37 40.87515 29.24563 1295 ft 121 kts 59°
2026-05-04 10:37 40.87875 29.25543 1097 ft 116 kts 58°
2026-05-04 10:37 40.88239 29.26531 905 ft 123 kts 57°
2026-05-04 10:39 40.90479 29.32592 1427 ft 118 kts 54°
2026-05-04 10:39 40.90916 29.33619 1825 ft 144 kts 56°
2026-05-04 10:39 40.91479 29.34870 2146 ft 177 kts 50°
2026-05-04 10:40 40.92328 29.36220 2430 ft 204 kts 47°
2026-05-04 10:40 40.93351 29.37541 2940 ft 207 kts 32°
2026-05-04 10:40 40.94698 29.38160 2978 ft 208 kts
2026-05-04 10:40 40.96103 29.37621 3027 ft 221 kts 331°
2026-05-04 10:41 40.97121 29.36042 3030 ft 235 kts 299°
2026-05-04 10:41 40.97376 29.33864 3021 ft 248 kts 267°
2026-05-04 10:41 40.96982 29.31634 3040 ft 248 kts 258°
2026-05-04 10:41 40.96441 29.29536 3008 ft 232 kts 253°
2026-05-04 10:42 40.95889 29.27595 3009 ft 221 kts 253°
2026-05-04 10:42 40.95287 29.25734 3031 ft 220 kts 250°
2026-05-04 10:42 40.94645 29.23913 3023 ft 224 kts 247°
2026-05-04 10:42 40.93915 29.22099 3018 ft 222 kts 243°
2026-05-04 10:43 40.93169 29.20328 3010 ft 219 kts 248°
2026-05-04 10:44 40.87315 29.10167 3019 ft 201 kts 149°
2026-05-04 10:45 40.86154 29.11050 3003 ft 186 kts 134°
2026-05-04 10:45 40.85341 29.12304 3027 ft 175 kts 107°
2026-05-04 10:45 40.85004 29.13803 3009 ft 166 kts 89°
2026-05-04 10:45 40.84984 29.15274 2969 ft 162 kts 79°
2026-05-04 10:46 40.85064 29.16764 2749 ft 160 kts 77°
2026-05-04 10:46 40.85326 29.18096 2537 ft 140 kts 65°
2026-05-04 10:46 40.85633 29.19246 2322 ft 126 kts 64°
2026-05-04 10:46 40.85977 29.20304 2132 ft 125 kts 60°
2026-05-04 10:47 40.86336 29.21315 1928 ft 119 kts 59°
2026-05-04 10:47 40.86684 29.22274 1743 ft 113 kts 59°
2026-05-04 10:47 40.87021 29.23195 1562 ft 112 kts 59°
2026-05-04 10:47 40.87361 29.24123 1382 ft 112 kts 59°
2026-05-04 10:49 40.89872 29.30965 309 ft 60 kts 64°
2026-05-04 10:49 40.89998 29.31221 306 ft 26 kts 45°
2026-05-04 10:50 40.90098 29.31319 308 ft 16 kts 33°
2026-05-04 10:51 40.90409 29.31096 308 ft 0 kts 334°
2026-05-04 11:26 40.90409 29.31097 308 ft 0 kts 334°